This demonstration page uses our WeatherBlox Daily Observations layout. Learn more.

Hourly Observations for January 30, 2018

Temp ( °F °C ) Dew Point ( °F °C ) Humidity (%) Winds ( mph kmh ) Pressure ( in mb ) Visibility ( mi km ) Precip ( " mm )
12:15 am 00:15 Clear 23 -5.2 17 -8.1 80 80 SSE 8 13 30.42 1030 10 16.0934 0 0
12:35 am 00:35 Clear 23 -5 18 -8 80 80 SSE 8 13 30.42 1030 10 16.0934 0 0
12:55 am 00:55 Clear 23 -4.8 18 -8 79 79 SSE 9 15 30.39 1029 10 16.0934 0 0
1:15 am 01:15 Clear 24 -4.6 18 -8 77 77 SSE 10 17 30.39 1029 10 16.0934 0 0
1:35 am 01:35 Clear 24 -4.2 18 -8 75 75 SSE 13 20 30.33 1027 10 16.0934 0 0
1:55 am 01:55 Clear 24 -4.3 18 -8 76 76 SSE 14 22 30.33 1027 10 16.0934 0 0
2:15 am 02:15 Clear 24 -4.5 18 -8 77 77 SSE 14 22 30.33 1027 10 16.0934 0 0
2:35 am 02:35 Clear 24 -4.4 18 -8 76 76 S 13 20 30.33 1027 10 16.0934 0 0
2:55 am 02:55 Clear 24 -4.3 18 -8 76 76 S 13 20 30.3 1026 10 16.0934 0 0
3:15 am 03:15 Clear 24 -4.2 18 -8 75 75 S 16 26 30.3 1026 10 16.0934 0 0
3:35 am 03:35 Clear 25 -4.1 18 -7.9 75 75 S 13 20 30.3 1026 10 16.0934 0 0
3:55 am 03:55 Clear 25 -3.9 18 -7.7 75 75 S 12 19 30.27 1025 10 16.0934 0 0
4:15 am 04:15 Clear 25 -3.7 18 -7.7 74 74 S 15 24 30.27 1025 10 16.0934 0 0
4:35 am 04:35 Clear 25 -3.7 18 -7.7 74 74 S 16 26 30.27 1025 10 16.0934 0 0
4:55 am 04:55 Partly Cloudy 26 -3.5 18 -7.6 74 74 S 15 24 30.24 1024 10 16.0934 0 0
5:15 am 05:15 Partly Cloudy 26 -3.5 19 -7.5 74 74 S 12 19 30.24 1024 10 16.0934 0 0
5:35 am 05:35 Clear 26 -3.5 19 -7.5 74 74 S 14 22 30.24 1024 10 16.0934 0 0
5:55 am 05:55 Clear 26 -3.5 19 -7.5 74 74 S 10 17 30.24 1024 10 16.0934 0 0
6:15 am 06:15 Clear 25 -4 18 -7.7 76 76 S 8 13 30.21 1023 10 16.0934 0 0
6:35 am 06:35 Clear 25 -4 18 -7.7 76 76 S 9 15 30.21 1023 10 16.0934 0 0
6:55 am 06:55 Clear 25 -4 18 -7.6 76 76 S 12 19 30.21 1023 10 16.0934 0 0
7:15 am 07:15 Clear 24 -4.2 18 -7.8 76 76 S 12 19 30.21 1023 10 16.0934 0 0
7:35 am 07:35 Clear 24 -4.6 18 -8 77 77 S 12 19 30.18 1022 10 16.0934 0 0
7:55 am 07:55 Sunny 24 -4.7 18 -7.9 79 79 S 14 22 30.18 1022 10 16.0934 0 0
8:15 am 08:15 Sunny 24 -4.5 18 -7.8 78 78 S 15 24 30.15 1021 10 16.0934 0 0
8:35 am 08:35 Sunny 25 -4 19 -7.5 77 77 S 15 24 30.15 1021 10 16.0934 0 0
8:55 am 08:55 Sunny 26 -3.4 19 -7.1 76 76 S 14 22 30.12 1020 10 16.0934 0 0
9:15 am 09:15 Sunny 28 -2.1 20 -6.6 72 72 S 16 26 30.12 1020 10 16.0934 0 0
9:35 am 09:35 Sunny 30 -1.2 20 -6.5 68 68 S 16 26 30.09 1019 10 16.0934 0 0
9:55 am 09:55 Sunny 31 -0.7 21 -6 68 68 S 15 24 30.09 1019 10 16.0934 0 0
10:15 am 10:15 Sunny 32 0 22 -5.7 66 66 S 18 30 30.06 1018 10 16.0934 0 0
10:35 am 10:35 Sunny 34 1 22 -5.4 63 63 SSW 20 31 30.06 1018 10 16.0934 0 0
10:55 am 10:55 Sunny 35 1.6 22 -5.3 61 61 SSW 22 35 30.03 1017 10 16.0934 0 0
11:15 am 11:15 Sunny 36 2.2 23 -5.1 59 59 SSW 22 35 30 1016 10 16.0934 0 0
11:35 am 11:35 Sunny 38 3.5 24 -4.6 56 56 SSW 18 30 29.97 1015 10 16.0934 0 0
11:55 am 11:55 Sunny 40 4.6 24 -4.4 52 52 SSW 18 30 29.97 1015 10 16.0934 0 0
12:15 pm 12:15 Sunny 42 5.4 24 -4.3 50 50 SSW 18 30 29.91 1013 10 16.0934 0 0
12:35 pm 12:35 Sunny 43 5.9 25 -4.1 49 49 SSW 16 26 29.91 1013 10 16.0934 0 0
12:55 pm 12:55 Sunny 44 6.6 25 -3.7 48 48 S 13 20 29.88 1012 10 16.0934 0 0
1:15 pm 13:15 Sunny 46 8 26 -3.4 45 45 SSW 13 20 29.85 1011 10 16.0934 0 0
1:35 pm 13:35 Sunny 47 8.3 26 -3.2 44 44 SSW 15 24 29.83 1010 10 16.0934 0 0
1:55 pm 13:55 Sunny 47 8.6 26 -3.3 43 43 SSW 13 20 29.83 1010 10 16.0934 0 0
2:15 pm 14:15 Sunny 49 9.2 27 -3 43 43 SSW 14 22 29.8 1009 10 16.0934 0 0
2:35 pm 14:35 Sunny 50 10 27 -2.6 41 41 SSW 12 19 29.8 1009 10 16.0934 0 0
2:55 pm 14:55 Sunny 51 10.5 27 -2.6 40 40 SSW 12 19 29.77 1008 10 16.0934 0 0
3:15 pm 15:15 Sunny 51 10.5 28 -2.5 40 40 S 10 17 29.77 1008 10 16.0934 0 0
3:35 pm 15:35 Sunny 51 10.5 28 -2.4 41 41 SW 10 17 29.77 1008 10 16.0934 0 0
3:55 pm 15:55 Sunny 51 10.6 28 -2.3 41 41 SSW 10 17 29.77 1008 10 16.0934 0 0
4:15 pm 16:15 Sunny 51 10.8 28 -2.2 41 41 SSW 15 24 29.77 1008 10 16.0934 0 0
4:35 pm 16:35 Sunny 51 10.5 28 -2.1 42 42 SSW 10 17 29.77 1008 10 16.0934 0 0
4:55 pm 16:55 Sunny 50 10 28 -2.3 42 42 SSW 9 15 29.77 1008 10 16.0934 0 0
5:15 pm 17:15 Sunny 49 9.5 28 -2.5 43 43 S 12 19 29.77 1008 10 16.0934 0 0
5:35 pm 17:35 Sunny 47 8.6 27 -2.6 46 46 S 9 15 29.77 1008 10 16.0934 0 0
5:55 pm 17:55 Clear 47 8.2 27 -2.7 46 46 S 10 17 29.77 1008 10 16.0934 0 0
6:15 pm 18:15 Clear 46 7.9 27 -2.8 47 47 S 12 19 29.74 1007 10 16.0934 0 0
6:35 pm 18:35 Clear 47 8.2 27 -3 45 45 S 7 11 29.74 1007 10 16.0934 0 0
6:55 pm 18:55 Clear 45 7.2 27 -3 49 49 S 8 13 29.74 1007 10 16.0934 0 0
7:15 pm 19:15 Clear 46 7.6 27 -3 47 47 S 12 19 29.74 1007 10 16.0934 0 0
7:35 pm 19:35 Clear 45 7.2 27 -3 49 49 SSW 8 13 29.74 1007 10 16.0934 0 0
7:55 pm 19:55 Clear 46 7.5 27 -2.9 48 48 S 6 9 29.74 1007 10 16.0934 0 0
8:15 pm 20:15 Clear 44 6.7 27 -2.9 51 51 S 8 13 29.74 1007 10 16.0934 0 0
8:35 pm 20:35 Clear 44 6.6 27 -2.8 51 51 SSW 6 9 29.74 1007 10 16.0934 0 0
8:55 pm 20:55 Clear 45 7.2 27 -2.8 49 49 SW 7 11 29.74 1007 10 16.0934 0 0
9:15 pm 21:15 Clear 45 7.2 27 -2.8 49 49 SSW 10 17 29.71 1006 10 16.0934 0 0
9:35 pm 21:35 Clear 45 7.4 27 -2.8 49 49 SSW 7 11 29.71 1006 10 16.0934 0 0
9:55 pm 21:55 Clear 44 6.9 27 -2.8 50 50 SSW 5 7 29.71 1006 10 16.0934 0 0
10:15 pm 22:15 Clear 44 6.4 27 -2.7 53 53 Calm 29.71 1006 10 16.0934 0 0
10:35 pm 22:35 Clear 44 6.7 27 -2.7 51 51 SW 6 9 29.71 1006 10 16.0934 0 0
10:55 pm 22:55 Clear 42 5.5 27 -2.6 56 56 Calm 29.74 1007 10 16.0934 0 0
11:15 pm 23:15 Clear 43 6.1 28 -2.2 56 56 WSW 5 7 29.77 1008 10 16.0934 0 0
11:35 pm 23:35 Clear 42 5.6 29 -1.8 59 59 SW 8 13 29.74 1007 10 16.0934 0 0
11:55 pm 23:55 Clear 40 4.5 28 -2.2 62 62 SW 6 9 29.74 1007 10 16.0934 0 0

Powered by AerisWeather